Location: Hains Lake
(37.8540°N, 99.8578°W)
Time: 03:18:51
(UTC+00:00)

NOAA 6 - Pass Details

Date: 11 December 2019
Orbit: 773 x 787 km, 98.7° (Epoch: 22 January)

Event Time Altitude Azimuth Distance (km) Brightness Sun altitude
Rises 12:45:58 0° 6° (N) 3,257 7.1 -11.4°
Reaches altitude 10° 12:48:21 10° 1° (N) 2,327 6.3 -10.9°
Maximum altitude 12:53:14 47° 289° (WNW) 1,020 4.2 -10.0°
Drops below altitude 10° 12:58:07 10° 216° (SW) 2,319 6.4 -9.1°
Sets 13:00:29 0° 210° (SSW) 3,244 7.2 -8.7°
